Torna al catalogo

COSMOS 1867 COOLANT

AttivoLEO
NORAD 39673·DEBRIS·🇷🇺 Russia

Lanciato Jul 10, 1987 da Baikonur Cosmodrome

Loading…

Prossimi Passaggi (prossime 24 ore)

TLE

AggiornatoSource: Space-Track

Epoca: Sep 13, 2026, 03:15 UTC

1 39673U 87060AL  26256.13579504  .00000138  00000-0  85549-4 0  9991
2 39673  65.0102 126.2711 0018235 282.0530  77.8512 14.33827623649517

Traccia COSMOS 1867 COOLANT in tempo reale con AllMySat

Download on the App Store